Location: Vancouver
(49.2500°N, 123.1330°W)
Time: 23:12:58
(UTC-07:00)

ERS-2 - Visible Passes

Search period start: 23 April 2014 00:00
Search period end: 03 May 2014 00:00
Orbit: 534 x 540 km, 98.6° (Epoch: 23 April)

Date Brightness Start Highest point End Pass type
(mag) Time Alt. Az. Time Alt. Az. Time Alt. Az.
23 Apr 5.5 21:24:45 10° NNW 21:27:25 18° WNW 21:30:03 10° WSW visible
24 Apr 5.3 21:16:10 10° NNW 21:19:08 21° WNW 21:22:06 10° WSW visible
25 Apr 5.0 21:07:37 10° N 21:10:50 25° WNW 21:14:03 10° WSW visible
26 Apr 4.6 20:59:05 10° N 21:02:31 31° WNW 21:05:56 10° SW visible
01 May 6.0 21:53:00 10° NW 21:54:13 11° NW 21:55:27 10° WNW visible
02 May 5.7 21:43:54 10° NNW 21:45:51 14° WNW 21:47:47 10° W visible
